QPF
0.00 0.00 0.00 0.00 0.00 0.00 0.00 0.00 0.00 0.00 0.00 0.00 0.00 0.00 0.00 0.00 0.01 0.01 0.04 0.04 0.07 0.07 0.07 0.11 0.15 0.17 0.17 0.17 0.16 0.16 0.13 0.10 0.09 0.08 0.07 0.07 0.06 0.04 0.04 0.03 0.04 0.03 0.02 0.02
0.00 0.00 0.00 0.00 0.00 0.00 0.00 0.00 0.00 0.00 0.00 0.00 0.00 0.00 0.00 0.00 0.00 0.01 0.02 0.03 0.04 0.05 0.06 0.09 0.11 0.16 0.19 0.17 0.14 0.15 0.11 0.09 0.09 0.08 0.07 0.06 0.05 0.03 0.03 0.02 0.02 0.02 0.01 0.02
0.00 0.00 0.00 0.00 0.00 0.00 0.00 0.00 0.00 0.00 0.00 0.00 0.00 0.00 0.00 0.00 0.00 0.00 0.00 0.01 0.02 0.03 0.04 0.08 0.10 0.13 0.14 0.11 0.09 0.11 0.10 0.09 0.07 0.07 0.05 0.03 0.03 0.02 0.02 0.02 0.02 0.01 0.01 0.01
0.00 0.00 0.00 0.00 0.00 0.00 0.00 0.00 0.00 0.00 0.00 0.00 0.00 0.01 0.00 0.00 0.00 0.00 0.00 0.00 0.01 0.02 0.03 0.07 0.08 0.10 0.12 0.10 0.08 0.10 0.10 0.07 0.05 0.04 0.03 0.03 0.02 0.02 0.01 0.01 0.01 0.01 0.01 0.01
0.00 0.00 0.00 0.00 0.00 0.00 0.00 0.00 0.00 0.00 0.00 0.00 0.00 0.00 0.00 0.00 0.00 0.00 0.00 0.00 0.01 0.02 0.02 0.04 0.08 0.08 0.09 0.08 0.09 0.07 0.06 0.05 0.05 0.04 0.03 0.02 0.02 0.01 0.01 0.00 0.00 0.01 0.01 0.01
0.00 0.00 0.00 0.00 0.00 0.00 0.00 0.00 0.00 0.00 0.00 0.00 0.00 0.00 0.00 0.00 0.00 0.00 0.00 0.00 0.01 0.02 0.02 0.03 0.06 0.05 0.06 0.06 0.08 0.06 0.05 0.04 0.03 0.03 0.03 0.02 0.01 0.01 0.00 0.00 0.00 0.00 0.00 0.01
0.00 0.00 0.00 0.00 0.00 0.00 0.00 0.00 0.00 0.00 0.00 0.00 0.00 0.00 0.00 0.00 0.00 0.00 0.00 0.00 0.00 0.01 0.01 0.03 0.04 0.04 0.07 0.05 0.05 0.04 0.03 0.02 0.02 0.02 0.02 0.01 0.01 0.01 0.01 0.01 0.01 0.00 0.00 0.00
0.00 0.00 0.00 0.00 0.00 0.00 0.00 0.00 0.00 0.00 0.00 0.00 0.00 0.00 0.00 0.00 0.00 0.00 0.00 0.00 0.00 0.01 0.01 0.02 0.03 0.03 0.05 0.06 0.04 0.03 0.02 0.02 0.03 0.02 0.01 0.01 0.01 0.00 0.00 0.00 0.00 0.00 0.01 0.01
0.00 0.00 0.00 0.00 0.00 0.00 0.00 0.00 0.00 0.00 0.00 0.00 0.00 0.00 0.00 0.00 0.00 0.00 0.00 0.00 0.00 0.00 0.00 0.01 0.02 0.02 0.03 0.04 0.03 0.02 0.02 0.01 0.01 0.01 0.01 0.01 0.01 0.00 0.00 0.00 0.00 0.00 0.00 0.00
0.00 0.00 0.00 0.00 0.00 0.00 0.00 0.00 0.00 0.00 0.01 0.01 0.00 0.00 0.00 0.00 0.00 0.00 0.00 0.00 0.00 0.00 0.00 0.00 0.00 0.01 0.01 0.02 0.02 0.01 0.01 0.01 0.01 0.01 0.01 0.00 0.00 0.00 0.01 0.00 0.00 0.00 0.00 0.00
0.00 0.00 0.00 0.00 0.00 0.00 0.00 0.00 0.00 0.00 0.00 0.00 0.00 0.00 0.00 0.00 0.00 0.00 0.00 0.00 0.00 0.00 0.00 0.00 0.00 0.00 0.01 0.01 0.01 0.01 0.01 0.01 0.01 0.01 0.01 0.01 0.00 0.00 0.00 0.00 0.00 0.00 0.00 0.00
0.01 0.00 0.00 0.00 0.00 0.00 0.00 0.00 0.00 0.01 0.01 0.01 0.00 0.00 0.00 0.00 0.00 0.00 0.00 0.00 0.00 0.00 0.00 0.00 0.00 0.00 0.00 0.00 0.00 0.00 0.00 0.00 0.01 0.01 0.00 0.00 0.00 0.00 0.00 0.00 0.00 0.00 0.00 0.00
0.01 0.01 0.00 0.00 0.00 0.00 0.00 0.00 0.00 0.00 0.01 0.01 0.01 0.00 0.00 0.00 0.00 0.00 0.00 0.00 0.00 0.00 0.00 0.00 0.00 0.00 0.00 0.00 0.00 0.00 0.00 0.00 0.00 0.00 0.00 0.01 0.00 0.00 0.00 0.00 0.00 0.00 0.00 0.00
0.01 0.01 0.01 0.01 0.00 0.00 0.00 0.00 0.00 0.00 0.01 0.01 0.00 0.00 0.00 0.00 0.00 0.00 0.00 0.00 0.00 0.00 0.00 0.00 0.00 0.00 0.00 0.00 0.00 0.00 0.00 0.00 0.00 0.01 0.01 0.01 0.01 0.01 0.01 0.01 0.00 0.00 0.00 0.00
0.01 0.00 0.00 0.00 0.00 0.00 0.00 0.00 0.00 0.00 0.00 0.00 0.00 0.00 0.00 0.00 0.00 0.00 0.00 0.00 0.00 0.00 0.00 0.00 0.00 0.00 0.00 0.00 0.00 0.00 0.00 0.00 0.00 0.00 0.01 0.00 0.00 0.01 0.02 0.02 0.01 0.01 0.00 0.00
0.01 0.00 0.00 0.00 0.00 0.00 0.00 0.00 0.00 0.00 0.00 0.00 0.00 0.00 0.00 0.00 0.00 0.00 0.00 0.00 0.00 0.00 0.00 0.00 0.00 0.00 0.00 0.00 0.00 0.00 0.00 0.00 0.00 0.00 0.00 0.00 0.00 0.01 0.01 0.01 0.01 0.01 0.01 0.00
0.01 0.01 0.01 0.00 0.00 0.00 0.00 0.00 0.00 0.00 0.00 0.00 0.00 0.00 0.00 0.00 0.00 0.00 0.00 0.00 0.01 0.01 0.01 0.01 0.01 0.00 0.00 0.00 0.00 0.00 0.00 0.00 0.00 0.00 0.00 0.00 0.01 0.01 0.01 0.01 0.01 0.01 0.01 0.01
0.01 0.01 0.01 0.00 0.01 0.01 0.00 0.00 0.00 0.00 0.00 0.00 0.00 0.00 0.00 0.00 0.00 0.00 0.00 0.01 0.01 0.01 0.01 0.01 0.01 0.00 0.00 0.00 0.00 0.01 0.01 0.01 0.01 0.01 0.01 0.01 0.01 0.01 0.01 0.01 0.01 0.01 0.01 0.01
0.01 0.01 0.01 0.01 0.01 0.00 0.00 0.00 0.00 0.00 0.00 0.00 0.00 0.00 0.00 0.00 0.00 0.01 0.01 0.01 0.01 0.02 0.01 0.01 0.01 0.01 0.00 0.01 0.01 0.01 0.02 0.01 0.01 0.01 0.01 0.01 0.01 0.01 0.01 0.00 0.01 0.01 0.01 0.01
0.01 0.01 0.02 0.02 0.03 0.01 0.01 0.00 0.00 0.00 0.01 0.00 0.00 0.00 0.00 0.00 0.00 0.01 0.02 0.02 0.02 0.01 0.01 0.01 0.01 0.02 0.01 0.01 0.01 0.01 0.01 0.01 0.01 0.01 0.01 0.01 0.01 0.01 0.01 0.01 0.01 0.01 0.01 0.01
0.03 0.03 0.03 0.03 0.03 0.01 0.00 0.00 0.00 0.02 0.02 0.00 0.00 0.00 0.00 0.00 0.01 0.01 0.01 0.01 0.02 0.01 0.01 0.01 0.01 0.01 0.01 0.01 0.01 0.01 0.01 0.01 0.01 0.02 0.01 0.01 0.02 0.02 0.01 0.01 0.01 0.01 0.01 0.01
0.03 0.04 0.03 0.03 0.03 0.02 0.01 0.00 0.01 0.01 0.01 0.00 0.00 0.00 0.01 0.01 0.01 0.01 0.01 0.01 0.02 0.02 0.01 0.01 0.01 0.01 0.02 0.02 0.01 0.01 0.01 0.02 0.02 0.02 0.02 0.02 0.02 0.02 0.02 0.02 0.01 0.02 0.02 0.02
0.02 0.03 0.02 0.02 0.02 0.01 0.01 0.00 0.00 0.00 0.00 0.01 0.01 0.01 0.01 0.01 0.01 0.02 0.01 0.01 0.01 0.01 0.01 0.02 0.02 0.02 0.02 0.02 0.01 0.01 0.01 0.02 0.02 0.02 0.01 0.01 0.01 0.01 0.01 0.01 0.01 0.02 0.02 0.02
0.01 0.01 0.02 0.01 0.01 0.01 0.01 0.00 0.01 0.01 0.01 0.01 0.01 0.01 0.01 0.01 0.01 0.02 0.02 0.01 0.02 0.02 0.02 0.02 0.03 0.02 0.03 0.03 0.02 0.02 0.02 0.01 0.01 0.01 0.01 0.01 0.01 0.01 0.01 0.01 0.02 0.02 0.02 0.02
0.00 0.01 0.01 0.01 0.01 0.01 0.01 0.01 0.01 0.01 0.02 0.02 0.02 0.01 0.01 0.01 0.01 0.02 0.02 0.02 0.02 0.02 0.04 0.04 0.03 0.03 0.03 0.03 0.02 0.02 0.01 0.01 0.01 0.01 0.01 0.01 0.01 0.01 0.01 0.02 0.02 0.02 0.03 0.03
0.00 0.01 0.01 0.01 0.01 0.01 0.02 0.02 0.02 0.02 0.02 0.02 0.02 0.02 0.02 0.02 0.02 0.02 0.02 0.02 0.02 0.02 0.02 0.03 0.03 0.03 0.03 0.03 0.03 0.03 0.02 0.01 0.01 0.01 0.01 0.02 0.02 0.02 0.02 0.02 0.02 0.02 0.02 0.01
MSLP
1011.58 1011.75 1011.74 1011.59 1011.36 1011.13 1010.94 1010.84 1010.87 1010.99 1011.20 1011.45 1011.71 1011.95 1012.16 1012.34 1012.49 1012.65 1012.83 1013.03 1013.26 1013.51 1013.78 1014.04 1014.29 1014.53 1014.75 1014.96 1015.16 1015.35 1015.54 1015.72 1015.89 1016.05 1016.20 1016.35 1016.51 1016.69 1016.91 1017.16 1017.44 1017.74 1018.03 1018.31
1011.62 1011.73 1011.68 1011.51 1011.29 1011.09 1010.95 1010.91 1010.97 1011.12 1011.31 1011.51 1011.68 1011.82 1011.91 1011.98 1012.07 1012.20 1012.38 1012.64 1012.95 1013.31 1013.68 1014.03 1014.34 1014.60 1014.82 1014.99 1015.15 1015.29 1015.44 1015.61 1015.78 1015.96 1016.15 1016.34 1016.54 1016.75 1016.97 1017.21 1017.47 1017.74 1018.01 1018.28
1011.47 1011.53 1011.46 1011.30 1011.12 1010.98 1010.92 1010.96 1011.09 1011.26 1011.44 1011.58 1011.66 1011.67 1011.64 1011.60 1011.60 1011.68 1011.86 1012.16 1012.55 1012.99 1013.45 1013.88 1014.25 1014.54 1014.75 1014.90 1015.02 1015.14 1015.27 1015.43 1015.63 1015.86 1016.11 1016.36 1016.61 1016.85 1017.09 1017.32 1017.56 1017.80 1018.05 1018.30
1011.12 1011.15 1011.07 1010.95 1010.85 1010.81 1010.86 1011.00 1011.21 1011.42 1011.60 1011.69 1011.68 1011.57 1011.41 1011.25 1011.14 1011.16 1011.32 1011.62 1012.06 1012.57 1013.10 1013.59 1014.01 1014.32 1014.54 1014.68 1014.78 1014.89 1015.02 1015.21 1015.46 1015.75 1016.07 1016.40 1016.71 1016.99 1017.25 1017.48 1017.70 1017.91 1018.13 1018.37
1010.62 1010.64 1010.58 1010.52 1010.51 1010.59 1010.77 1011.04 1011.34 1011.61 1011.79 1011.85 1011.75 1011.54 1011.25 1010.96 1010.75 1010.68 1010.78 1011.07 1011.52 1012.06 1012.64 1013.17 1013.63 1013.96 1014.20 1014.34 1014.45 1014.57 1014.73 1014.96 1015.26 1015.63 1016.03 1016.43 1016.81 1017.14 1017.42 1017.65 1017.86 1018.04 1018.23 1018.44
1010.07 1010.08 1010.06 1010.07 1010.17 1010.37 1010.69 1011.07 1011.47 1011.80 1012.00 1012.03 1011.88 1011.57 1011.16 1010.75 1010.43 1010.26 1010.30 1010.54 1010.97 1011.51 1012.10 1012.66 1013.14 1013.51 1013.76 1013.93 1014.07 1014.21 1014.41 1014.69 1015.06 1015.49 1015.96 1016.44 1016.88 1017.25 1017.56 1017.79 1017.99 1018.15 1018.32 1018.50
1009.56 1009.57 1009.59 1009.68 1009.87 1010.19 1010.62 1011.11 1011.59 1011.97 1012.19 1012.20 1012.00 1011.62 1011.13 1010.62 1010.19 1009.93 1009.88 1010.06 1010.44 1010.96 1011.54 1012.11 1012.61 1013.00 1013.29 1013.49 1013.66 1013.84 1014.09 1014.42 1014.84 1015.33 1015.86 1016.39 1016.88 1017.29 1017.62 1017.87 1018.05 1018.21 1018.36 1018.53
1009.15 1009.17 1009.23 1009.38 1009.65 1010.05 1010.56 1011.12 1011.65 1012.07 1012.30 1012.30 1012.07 1011.64 1011.09 1010.51 1010.00 1009.66 1009.53 1009.64 1009.96 1010.44 1011.00 1011.56 1012.07 1012.49 1012.81 1013.06 1013.27 1013.50 1013.79 1014.16 1014.62 1015.15 1015.71 1016.28 1016.79 1017.24 1017.59 1017.85 1018.05 1018.20 1018.35 1018.52
1008.86 1008.91 1009.01 1009.20 1009.51 1009.95 1010.49 1011.07 1011.61 1012.03 1012.26 1012.26 1012.02 1011.57 1010.99 1010.37 1009.82 1009.42 1009.24 1009.28 1009.54 1009.97 1010.50 1011.05 1011.56 1012.01 1012.37 1012.66 1012.93 1013.20 1013.52 1013.92 1014.40 1014.95 1015.52 1016.10 1016.63 1017.09 1017.47 1017.75 1017.97 1018.14 1018.30 1018.47
1008.69 1008.76 1008.88 1009.10 1009.42 1009.85 1010.37 1010.92 1011.43 1011.82 1012.03 1012.02 1011.78 1011.34 1010.78 1010.16 1009.61 1009.19 1008.97 1008.97 1009.17 1009.55 1010.04 1010.58 1011.10 1011.56 1011.96 1012.30 1012.61 1012.92 1013.28 1013.70 1014.18 1014.73 1015.30 1015.87 1016.41 1016.88 1017.27 1017.59 1017.84 1018.04 1018.23 1018.41
1008.57 1008.67 1008.82 1009.04 1009.34 1009.72 1010.17 1010.65 1011.08 1011.41 1011.58 1011.56 1011.33 1010.93 1010.41 1009.85 1009.33 1008.93 1008.70 1008.67 1008.84 1009.17 1009.63 1010.14 1010.65 1011.13 1011.56 1011.95 1012.30 1012.66 1013.04 1013.47 1013.95 1014.48 1015.04 1015.60 1016.14 1016.62 1017.03 1017.38 1017.67 1017.91 1018.13 1018.34
1008.45 1008.60 1008.77 1008.97 1009.23 1009.54 1009.89 1010.25 1010.58 1010.82 1010.94 1010.91 1010.71 1010.36 1009.92 1009.43 1008.98 1008.63 1008.42 1008.38 1008.52 1008.81 1009.22 1009.70 1010.20 1010.68 1011.14 1011.56 1011.96 1012.35 1012.76 1013.20 1013.68 1014.20 1014.74 1015.29 1015.82 1016.31 1016.75 1017.13 1017.47 1017.76 1018.02 1018.26
1008.32 1008.52 1008.70 1008.89 1009.08 1009.30 1009.53 1009.76 1009.96 1010.11 1010.17 1010.13 1009.96 1009.69 1009.34 1008.96 1008.60 1008.31 1008.14 1008.10 1008.21 1008.46 1008.81 1009.24 1009.71 1010.19 1010.65 1011.10 1011.53 1011.96 1012.39 1012.85 1013.34 1013.85 1014.38 1014.92 1015.44 1015.95 1016.41 1016.83 1017.21 1017.55 1017.85 1018.12
1008.18 1008.42 1008.62 1008.78 1008.91 1009.03 1009.13 1009.23 1009.31 1009.36 1009.37 1009.31 1009.19 1009.00 1008.76 1008.49 1008.23 1008.02 1007.88 1007.85 1007.93 1008.12 1008.41 1008.77 1009.19 1009.63 1010.09 1010.54 1011.00 1011.46 1011.92 1012.40 1012.89 1013.41 1013.94 1014.47 1015.00 1015.51 1016.00 1016.46 1016.88 1017.25 1017.59 1017.89
1008.07 1008.34 1008.54 1008.68 1008.75 1008.77 1008.75 1008.72 1008.69 1008.66 1008.62 1008.56 1008.49 1008.38 1008.25 1008.09 1007.94 1007.80 1007.71 1007.67 1007.71 1007.83 1008.04 1008.31 1008.66 1009.04 1009.47 1009.92 1010.38 1010.85 1011.34 1011.84 1012.35 1012.88 1013.41 1013.94 1014.48 1015.00 1015.50 1015.98 1016.43 1016.84 1017.20 1017.52
1008.02 1008.31 1008.51 1008.61 1008.61 1008.54 1008.42 1008.29 1008.16 1008.06 1007.99 1007.95 1007.92 1007.90 1007.88 1007.83 1007.77 1007.71 1007.64 1007.60 1007.59 1007.63 1007.74 1007.92 1008.16 1008.48 1008.85 1009.26 1009.72 1010.20 1010.70 1011.21 1011.74 1012.27 1012.81 1013.34 1013.88 1014.40 1014.91 1015.40 1015.86 1016.29 1016.67 1017.00
1008.08 1008.35 1008.51 1008.56 1008.50 1008.35 1008.15 1007.93 1007.74 1007.59 1007.51 1007.49 1007.53 1007.60 1007.67 1007.73 1007.76 1007.76 1007.72 1007.66 1007.60 1007.56 1007.57 1007.64 1007.78 1008.00 1008.30 1008.67 1009.09 1009.56 1010.06 1010.58 1011.11 1011.64 1012.18 1012.71 1013.23 1013.74 1014.25 1014.73 1015.20 1015.62 1016.02 1016.36
1008.23 1008.44 1008.54 1008.52 1008.39 1008.17 1007.90 1007.63 1007.40 1007.24 1007.17 1007.20 1007.30 1007.45 1007.63 1007.78 1007.90 1007.95 1007.94 1007.87 1007.77 1007.66 1007.57 1007.54 1007.58 1007.71 1007.92 1008.23 1008.60 1009.04 1009.52 1010.03 1010.55 1011.07 1011.58 1012.09 1012.59 1013.09 1013.57 1014.04 1014.48 1014.91 1015.29 1015.64
1008.40 1008.51 1008.52 1008.42 1008.21 1007.93 1007.62 1007.32 1007.08 1006.94 1006.91 1007.00 1007.18 1007.42 1007.69 1007.94 1008.13 1008.24 1008.27 1008.20 1008.08 1007.92 1007.76 1007.65 1007.60 1007.64 1007.77 1008.01 1008.33 1008.72 1009.16 1009.64 1010.13 1010.62 1011.10 1011.58 1012.04 1012.50 1012.95 1013.38 1013.81 1014.21 1014.59 1014.93
1008.51 1008.50 1008.40 1008.20 1007.92 1007.59 1007.26 1006.96 1006.74 1006.64 1006.68 1006.84 1007.10 1007.44 1007.80 1008.14 1008.41 1008.59 1008.65 1008.61 1008.49 1008.31 1008.12 1007.95 1007.84 1007.81 1007.88 1008.05 1008.31 1008.65 1009.04 1009.47 1009.91 1010.35 1010.79 1011.22 1011.64 1012.04 1012.45 1012.84 1013.23 1013.61 1013.97 1014.31
1008.48 1008.33 1008.11 1007.81 1007.47 1007.12 1006.78 1006.52 1006.36 1006.33 1006.44 1006.69 1007.04 1007.47 1007.92 1008.34 1008.68 1008.92 1009.04 1009.05 1008.95 1008.79 1008.59 1008.41 1008.27 1008.21 1008.23 1008.35 1008.55 1008.83 1009.16 1009.53 1009.91 1010.30 1010.68 1011.05 1011.41 1011.76 1012.11 1012.47 1012.82 1013.16 1013.50 1013.82
1008.26 1007.98 1007.65 1007.28 1006.90 1006.54 1006.24 1006.03 1005.95 1006.01 1006.21 1006.55 1006.99 1007.50 1008.02 1008.50 1008.92 1009.22 1009.40 1009.46 1009.42 1009.29 1009.13 1008.97 1008.83 1008.76 1008.76 1008.85 1009.01 1009.23 1009.51 1009.81 1010.13 1010.45 1010.76 1011.07 1011.37 1011.66 1011.96 1012.26 1012.57 1012.88 1013.18 1013.48
1007.88 1007.48 1007.07 1006.66 1006.27 1005.94 1005.70 1005.58 1005.59 1005.75 1006.05 1006.47 1006.99 1007.56 1008.13 1008.66 1009.12 1009.47 1009.71 1009.83 1009.84 1009.78 1009.68 1009.56 1009.46 1009.41 1009.41 1009.48 1009.60 1009.78 1010.00 1010.24 1010.50 1010.75 1010.99 1011.23 1011.47 1011.71 1011.95 1012.20 1012.46 1012.73 1013.00 1013.26
1007.39 1006.94 1006.48 1006.06 1005.71 1005.45 1005.30 1005.28 1005.40 1005.67 1006.06 1006.55 1007.11 1007.71 1008.31 1008.85 1009.33 1009.71 1009.98 1010.14 1010.22 1010.23 1010.18 1010.13 1010.08 1010.06 1010.08 1010.15 1010.26 1010.41 1010.58 1010.76 1010.95 1011.14 1011.32 1011.50 1011.68 1011.86 1012.04 1012.24 1012.45 1012.67 1012.90 1013.11
1006.93 1006.46 1006.02 1005.64 1005.36 1005.19 1005.15 1005.25 1005.49 1005.85 1006.31 1006.85 1007.44 1008.03 1008.61 1009.14 1009.60 1009.97 1010.25 1010.44 1010.56 1010.62 1010.64 1010.65 1010.66 1010.68 1010.73 1010.81 1010.91 1011.02 1011.16 1011.29 1011.42 1011.55 1011.67 1011.79 1011.91 1012.04 1012.17 1012.32 1012.48 1012.64 1012.81 1012.96
1006.60 1006.18 1005.80 1005.51 1005.33 1005.28 1005.37 1005.59 1005.93 1006.37 1006.88 1007.44 1008.01 1008.57 1009.10 1009.57 1009.97 1010.30 1010.55 1010.74 1010.88 1010.97 1011.04 1011.10 1011.16 1011.22 1011.30 1011.39 1011.48 1011.58 1011.68 1011.77 1011.85 1011.93 1012.00 1012.07 1012.13 1012.20 1012.28 1012.37 1012.47 1012.58 1012.68 1012.77
Thickness
5792 5785 5785 5792 5795 5792 5788 5783 5781 5784 5788 5777 5771 5768 5766 5763 5756 5750 5746 5742 5737 5736 5739 5740 5742 5744 5744 5743 5742 5742 5741 5740 5739 5739 5738 5737 5736 5737 5736 5734 5731 5729 5727 5725
5782 5781 5796 5799 5795 5790 5786 5780 5782 5783 5781 5775 5770 5767 5769 5764 5758 5754 5748 5743 5739 5738 5737 5737 5739 5741 5741 5740 5740 5740 5739 5739 5738 5737 5737 5737 5737 5736 5736 5733 5728 5727 5725 5723
5779 5794 5800 5793 5790 5785 5785 5783 5782 5777 5776 5774 5766 5765 5764 5763 5761 5757 5753 5749 5746 5742 5739 5738 5738 5740 5740 5740 5740 5741 5739 5738 5738 5737 5737 5736 5734 5733 5732 5730 5728 5726 5724 5723
5785 5797 5793 5789 5789 5787 5781 5789 5783 5776 5768 5770 5764 5756 5764 5764 5758 5756 5754 5752 5749 5747 5745 5743 5741 5739 5740 5740 5741 5741 5738 5738 5737 5737 5738 5736 5734 5732 5732 5730 5728 5725 5723 5722
5783 5791 5787 5784 5790 5789 5785 5786 5782 5776 5770 5766 5767 5758 5769 5767 5757 5758 5759 5756 5753 5750 5748 5745 5743 5741 5741 5742 5741 5740 5738 5737 5736 5737 5737 5735 5734 5733 5732 5730 5725 5724 5723 5720
5791 5800 5796 5794 5795 5792 5786 5780 5776 5774 5773 5756 5764 5756 5762 5770 5766 5765 5763 5760 5756 5753 5750 5747 5745 5743 5741 5742 5741 5740 5737 5736 5736 5736 5735 5733 5732 5730 5728 5725 5725 5724 5723 5721
5777 5789 5798 5799 5785 5784 5781 5771 5760 5756 5756 5758 5767 5758 5766 5778 5779 5774 5768 5763 5760 5758 5753 5749 5746 5744 5743 5742 5742 5740 5738 5736 5735 5734 5733 5732 5731 5728 5725 5725 5724 5723 5723 5721
5768 5771 5791 5793 5788 5783 5780 5775 5754 5741 5747 5761 5766 5759 5776 5783 5782 5780 5776 5771 5765 5761 5758 5753 5750 5748 5746 5744 5743 5741 5739 5736 5735 5733 5732 5731 5729 5729 5729 5725 5726 5723 5723 5721
5774 5774 5792 5794 5795 5789 5777 5775 5784 5766 5761 5752 5765 5771 5779 5781 5777 5776 5774 5771 5767 5765 5763 5759 5756 5753 5751 5748 5746 5744 5741 5738 5736 5735 5732 5729 5728 5728 5728 5724 5722 5723 5719 5718
5785 5770 5783 5787 5786 5784 5785 5784 5770 5761 5741 5741 5756 5763 5769 5771 5773 5774 5773 5772 5771 5769 5767 5765 5762 5759 5757 5754 5750 5747 5744 5740 5738 5736 5733 5732 5729 5727 5725 5724 5721 5719 5716 5714
5786 5769 5771 5773 5770 5774 5768 5768 5768 5768 5761 5743 5741 5760 5784 5780 5780 5778 5777 5777 5775 5774 5771 5769 5767 5765 5761 5758 5754 5749 5746 5742 5739 5737 5734 5732 5729 5727 5724 5722 5720 5717 5714 5711
5781 5773 5764 5771 5783 5785 5779 5774 5768 5752 5750 5753 5749 5763 5790 5789 5789 5785 5783 5782 5781 5778 5776 5773 5770 5767 5763 5759 5756 5752 5749 5745 5742 5739 5735 5732 5729 5726 5723 5721 5719 5715 5712 5709
5773 5762 5748 5751 5759 5767 5768 5773 5773 5770 5762 5753 5748 5763 5786 5787 5786 5786 5783 5781 5780 5778 5776 5774 5771 5767 5764 5761 5758 5755 5751 5748 5745 5741 5736 5732 5729 5725 5722 5720 5717 5713 5710 5707
5773 5762 5757 5749 5760 5770 5763 5766 5768 5764 5754 5754 5758 5766 5777 5779 5777 5779 5781 5780 5779 5777 5775 5773 5770 5767 5765 5762 5759 5755 5752 5750 5746 5741 5736 5732 5728 5725 5722 5719 5715 5711 5708 5704
5763 5755 5761 5767 5771 5771 5769 5767 5765 5760 5763 5759 5764 5768 5775 5778 5777 5776 5777 5777 5776 5774 5772 5770 5768 5767 5764 5761 5758 5755 5753 5750 5747 5741 5736 5732 5728 5725 5721 5717 5713 5709 5706 5703
5753 5749 5753 5753 5763 5763 5760 5765 5765 5762 5764 5764 5765 5767 5778 5779 5778 5773 5773 5772 5771 5771 5771 5770 5768 5766 5762 5760 5757 5754 5751 5748 5744 5738 5734 5732 5727 5723 5718 5714 5711 5707 5703 5699
5748 5743 5739 5743 5755 5752 5747 5763 5764 5763 5767 5764 5759 5767 5772 5769 5767 5766 5766 5767 5768 5769 5770 5769 5768 5765 5763 5761 5757 5753 5750 5746 5740 5735 5732 5729 5724 5719 5716 5713 5708 5704 5700 5696
5740 5736 5738 5741 5737 5722 5757 5774 5771 5764 5765 5767 5766 5767 5766 5764 5764 5765 5765 5763 5763 5765 5765 5766 5766 5764 5763 5760 5755 5751 5749 5743 5737 5733 5729 5725 5720 5716 5712 5708 5704 5701 5697 5693
5738 5733 5732 5732 5729 5737 5753 5761 5761 5754 5754 5763 5761 5760 5761 5762 5760 5757 5759 5760 5759 5761 5761 5762 5763 5763 5759 5756 5752 5746 5742 5738 5733 5729 5724 5721 5717 5713 5708 5703 5699 5696 5692 5688
5727 5730 5728 5725 5718 5719 5742 5755 5759 5752 5741 5754 5755 5752 5753 5754 5749 5747 5751 5752 5753 5754 5755 5755 5756 5754 5750 5748 5745 5739 5734 5730 5726 5723 5719 5716 5712 5707 5702 5698 5694 5691 5686 5683
5714 5715 5719 5719 5716 5730 5743 5750 5749 5729 5731 5744 5747 5746 5746 5743 5741 5740 5744 5743 5743 5743 5744 5745 5743 5741 5738 5737 5734 5728 5724 5720 5718 5716 5712 5708 5704 5699 5695 5691 5687 5683 5679 5676
5713 5713 5711 5715 5710 5716 5736 5739 5733 5729 5736 5738 5738 5738 5736 5734 5734 5733 5732 5731 5732 5731 5732 5732 5729 5725 5724 5722 5719 5715 5712 5711 5709 5706 5702 5697 5694 5692 5688 5682 5678 5674 5670 5666
5713 5715 5720 5717 5716 5722 5731 5729 5730 5733 5730 5730 5730 5730 5729 5725 5723 5722 5720 5719 5718 5718 5718 5718 5715 5711 5709 5707 5705 5701 5699 5699 5696 5692 5689 5686 5684 5681 5678 5674 5670 5666 5662 5660
5708 5710 5711 5711 5715 5717 5720 5722 5723 5725 5724 5723 5723 5721 5719 5715 5713 5710 5708 5706 5705 5705 5705 5704 5701 5698 5695 5694 5692 5690 5687 5684 5682 5679 5676 5674 5671 5670 5666 5663 5662 5658 5656 5652
5699 5703 5704 5702 5706 5709 5709 5711 5713 5714 5714 5712 5711 5710 5707 5704 5700 5697 5694 5692 5692 5691 5691 5690 5687 5684 5681 5679 5677 5677 5674 5672 5670 5667 5665 5662 5661 5659 5654 5652 5648 5646 5643 5639
5689 5690 5692 5693 5696 5699 5696 5701 5704 5702 5700 5698 5696 5694 5694 5691 5686 5684 5682 5680 5679 5678 5677 5675 5674 5672 5669 5667 5664 5662 5660 5660 5658 5655 5654 5653 5651 5647 5645 5641 5638 5632 5629 5624